SL-12 R/B(2), 14194

Orbit data source: Space-Track

SL-12 R/B(2), 14194 is space debris in GEO originally from a launch on Wed, 18 Mar 1981 UTC launched from the Tyuratam Missile And Space Complex (TTMTR). Debris objects in space refer to the collection of defunct objects orbiting the Earth. Examples of debris include non-operational satellites, rocket bodies, and fragments generated from explosions, collisions, or faulty payload assembly.

Loading next visibility...
Identifier
14194, 1981-027F
Orbit
GEO
Country
Flag of CISCIS
Related business
Manufacturer
NPO Energiya
Mission
Spacecraft
Bus & Motor
BLOK DM, Unknown motor
Mass
2,440 kg wet, 2,440 kg dry
Launch date (UTC)
1981-03-18 (45 years ago)
Launch vehicle
Unknown
Launch site
Tyuratam Missile And Space Complex (TTMTR)
Object type
Payload
Rocket body
Debris
Shape & HBR
Unknown
Radar Cross Section
Large (>1 m²)

Expand to show TLE details & history
Last TLE update: 1 day ago

TLE from 1 day ago
0 SL-12 R/B(2)
1 14194U 81027F   26105.63449890 -.00000045  00000-0  00000-0 0  9994
2 14194   8.1906 297.5473 0015464 217.3974 167.9992  0.97663103119509
Epoch: 2026-04-15T15:13Z
TLE epoch observation values (Epoch: 2026-04-15T15:13:40.704Z)
Latitude
3.53274°
Longitude
-109.45366°
Altitude
36,598.123 km
Speed
3.043 km/s
True Right ascension
21h 31m 02s
True Declination
3° 31' 45"
Sunlit
Object was in daylight at epoch
Visualization orbit readout
Latitude
Unknown
Longitude
Unknown
Altitude
Unknown
Speed
Unknown
Apparent Right ascension
Unknown
Apparent Declination
Unknown
Sunlit
N/A
Visualization observer readout
Local Sidereal Time
02:16:55
Azimuth
Unknown
Elevation
Unknown
Doppler factor
Unknown
Orbital elements
Apogee altitude
36,601.516 km
Perigee altitude
36,468.794 km
Semi-major axis
42,913.292 km
Eccentricity
0.00155
Inclination
8.1906°
RAAN
297.5473°
Arg. of periapsis
217.3974°
True anomaly
168.03598°
Mean anomaly
167.9992°
Eccentric anomaly
168.01759°
Mean motion
0.24415 °/min
Orbital period
1,474.51 mins
BSTAR
0
Loading maneuver chart data...
Computing Atmospheric mass density...
Loading historical data...
Loading historical data...
Loading historical data...
Loading historical data...
Loading historical data...
Loading historical data...
Loading historical data...

Documentation

Showing up to 5 results
|